Chickasha, OK

6:50 AM CDT on October 18, 2019 (GMT -0500)
Chickasha Municipal

Weather History for KCHK - September, 2019

Change the Weather History Date:

Monday, September 16, 2019

  Actual Average Record
Temperature  
Mean Temperature 80 °F -  
Max Temperature 92 °F 86 °F 102 °F (1956)
Min Temperature 69 °F 61 °F 42 °F (1993)
Cooling Degree Days 16    
Growing Degree Days 30 (Base 50)    
Moisture  
Dew Point 69 °F    
Average Humidity 69    
Maximum Humidity 95    
Minimum Humidity 43    
Precipitation  
Precipitation 0.00 in - - ()
Sea Level Pressure  
Sea Level Pressure 30.02 in    
Wind  
Wind Speed 5 mph (SE)    
Max Wind Speed 13 mph    
Max Gust Speed -    
Visibility 10 miles    
Events      
Averages and records for this station are not official NWS values.
T = Trace of Precipitation, MM = Missing Value Source: NWS Daily Summary

Daily Weather History Graph

Daily Weather History Graph

Search for Another Location

Airport or City:

Astronomy

Sep. 16, 2019 Rise Set
Actual Time 7:15 AM CDT 7:37 PM CDT
Civil Twilight 6:49 AM CDT 8:02 PM CDT
Nautical Twilight 6:20 AM CDT 8:32 PM CDT
Astronomical Twilight 5:49 AM CDT 9:02 PM CDT
Moon 9:17 PM CDT (9/16) 9:20 AM CDT (9/16)
Length of Visible Light 13h 13m
Length of Day
12h 22m
Waning Gibbous, 94% of the Moon is Illuminated
Sep 16
Waning Gibbous
Sep 21
Last Quarter
Sep 28
New
Oct 5
First Quarter
Oct 13
Full

Hourly Weather History & Observations

Time (CDT) Temp. Heat Index Dew Point Humidity Pressure Visibility Wind Dir Wind Speed Gust Speed Precip Events Conditions
12:15 AM 76.1 °F - 69.1 °F 79% 30.04 in 10.0 mi ESE 4.6 mph - N/A   Clear
12:35 AM 75.6 °F - 69.4 °F 81% 30.04 in 10.0 mi ESE 5.8 mph - N/A   Clear
12:55 AM 74.8 °F - 69.4 °F 83% 30.04 in 10.0 mi SE 5.8 mph - N/A   Clear
1:15 AM 74.7 °F - 69.6 °F 84% 30.05 in 10.0 mi ESE 5.8 mph - N/A   Clear
1:35 AM 74.3 °F - 69.6 °F 85% 30.04 in 10.0 mi ESE 5.8 mph - N/A   Clear
1:55 AM 73.8 °F - 69.4 °F 86% 30.05 in 10.0 mi ESE 6.9 mph - N/A   Clear
2:15 AM 73.6 °F - 69.3 °F 86% 30.05 in 10.0 mi ESE 5.8 mph - N/A   Clear
2:35 AM 73.2 °F - 69.1 °F 87% 30.05 in 10.0 mi SE 5.8 mph - N/A   Clear
2:55 AM 72.9 °F - 69.1 °F 88% 30.05 in 10.0 mi SE 4.6 mph - N/A   Clear
3:15 AM 72.9 °F - 68.9 °F 87% 30.04 in 10.0 mi ESE 5.8 mph - N/A   Clear
3:35 AM 72.7 °F - 68.7 °F 87% 30.05 in 10.0 mi SE 4.6 mph - N/A   Clear
3:55 AM 72.3 °F - 68.7 °F 88% 30.05 in 10.0 mi SE 4.6 mph - N/A   Clear
4:15 AM 71.8 °F - 68.4 °F 89% 30.05 in 10.0 mi SE 3.5 mph - N/A   Clear
4:35 AM 71.8 °F - 68.2 °F 88% 30.05 in 10.0 mi ESE 3.5 mph - N/A   Clear
4:55 AM 72.1 °F - 68.2 °F 87% 30.05 in 10.0 mi Calm Calm - N/A   Clear
5:15 AM 72.0 °F - 68.2 °F 88% 30.05 in 10.0 mi Calm Calm - N/A   Clear
5:35 AM 71.1 °F - 68.4 °F 91% 30.05 in 10.0 mi Calm Calm - N/A   Clear
5:55 AM 70.5 °F - 67.8 °F 91% 30.05 in 10.0 mi Calm Calm - N/A   Clear
6:15 AM 70.0 °F - 67.6 °F 92% 30.05 in 10.0 mi Calm Calm - N/A   Clear
6:35 AM 69.6 °F - 67.5 °F 93% 30.05 in 10.0 mi Calm Calm - N/A   Clear
7:15 AM 70.0 °F - 67.3 °F 91% 30.06 in - Calm Calm - N/A   Unknown
7:35 AM 69.6 °F - 67.3 °F 92% 30.07 in 7.0 mi Calm Calm - N/A   Clear
7:55 AM 69.8 °F - 68.2 °F 95% 30.07 in 7.0 mi Calm Calm - N/A   Clear
8:15 AM 70.5 °F - 68.5 °F 93% 30.08 in 5.0 mi Calm Calm - N/A   Clear
8:35 AM 72.5 °F - 69.4 °F 90% 30.08 in 7.0 mi Calm Calm - N/A   Clear
8:55 AM 75.0 °F - 69.6 °F 83% 30.08 in 10.0 mi Calm Calm - N/A   Clear
9:15 AM 76.8 °F - 69.3 °F 77% 30.09 in 10.0 mi Calm Calm - N/A   Clear
9:35 AM 78.6 °F - 70.2 °F 75% 30.08 in 10.0 mi East 4.6 mph - N/A   Clear
9:55 AM 79.5 °F - 70.3 °F 73% 30.08 in 10.0 mi ESE 4.6 mph - N/A   Clear
10:15 AM 81.3 °F 85.2 °F 70.5 °F 70% 30.08 in 10.0 mi SE 4.6 mph - N/A   Clear
10:35 AM 83.3 °F 87.9 °F 70.7 °F 66% 30.08 in 10.0 mi SSE 5.8 mph - N/A   Clear
11:15 AM 85.5 °F 89.8 °F 69.4 °F 59% 30.08 in 10.0 mi SSW 4.6 mph - N/A   Clear
11:35 AM 86.9 °F 92.1 °F 70.3 °F 58% 30.07 in 10.0 mi South 4.6 mph - N/A   Clear
11:55 AM 86.5 °F 90.0 °F 68.2 °F 54% 30.07 in 10.0 mi Calm Calm - N/A   Clear
12:15 PM 88.0 °F 91.8 °F 68.5 °F 52% 30.06 in 10.0 mi Calm Calm - N/A   Clear
12:35 PM 88.9 °F 93.4 °F 69.1 °F 52% 30.05 in 10.0 mi Calm Calm - N/A   Clear
12:55 PM 90.0 °F 94.1 °F 68.4 °F 49% 30.05 in 10.0 mi ESE 6.9 mph - N/A   Clear
1:15 PM 89.8 °F 93.3 °F 67.8 °F 48% 30.04 in 10.0 mi SSE 9.2 mph - N/A   Clear
1:35 PM 91.0 °F 95.6 °F 69.1 °F 48% 30.04 in 10.0 mi SSW 8.1 mph - N/A   Clear
1:55 PM 90.3 °F 94.3 °F 68.2 °F 48% 30.03 in 10.0 mi ESE 4.6 mph - N/A   Scattered Clouds
2:15 PM 91.8 °F 95.1 °F 67.3 °F 44% 30.02 in 10.0 mi SSE 8.1 mph - N/A   Scattered Clouds
2:35 PM 90.1 °F 93.1 °F 67.1 °F 46% 30.02 in 10.0 mi SE 9.2 mph - N/A   Scattered Clouds
2:55 PM 92.3 °F 95.6 °F 66.9 °F 43% 30.01 in 10.0 mi ESE 11.5 mph - N/A   Scattered Clouds
3:35 PM 91.6 °F 95.2 °F 67.6 °F 45% 30.00 in 10.0 mi SE 10.4 mph - N/A   Scattered Clouds
3:55 PM 92.1 °F 95.3 °F 66.9 °F 43% 29.99 in 10.0 mi SSE 9.2 mph - N/A   Scattered Clouds
4:15 PM 91.9 °F 95.9 °F 67.6 °F 45% 29.98 in 10.0 mi SE 9.2 mph - N/A   Scattered Clouds
4:35 PM 92.5 °F 95.9 °F 67.1 °F 43% 29.98 in 10.0 mi SE 11.5 mph - N/A   Scattered Clouds
4:55 PM 92.1 °F 95.7 °F 67.3 °F 44% 29.98 in 10.0 mi SE 12.7 mph - N/A   Clear
5:15 PM 89.4 °F 93.5 °F 68.4 °F 50% 29.97 in 10.0 mi SE 9.2 mph - N/A   Scattered Clouds
5:35 PM 91.0 °F 95.6 °F 69.1 °F 48% 29.97 in 10.0 mi SE 11.5 mph - N/A   Scattered Clouds
5:55 PM 90.5 °F 94.6 °F 68.2 °F 48% 29.96 in 10.0 mi SE 11.5 mph - N/A   Clear
6:15 PM 90.0 °F 93.6 °F 67.6 °F 48% 29.96 in 10.0 mi SE 8.1 mph - N/A   Clear
6:35 PM 89.2 °F 92.8 °F 67.6 °F 49% 29.96 in 10.0 mi SE 10.4 mph - N/A   Clear
6:55 PM 87.8 °F 91.4 °F 68.0 °F 52% 29.96 in 10.0 mi SE 9.2 mph - N/A   Clear
7:15 PM 85.8 °F 89.7 °F 69.1 °F 57% 29.96 in 10.0 mi SE 8.1 mph - N/A   Clear
7:35 PM 84.2 °F 88.1 °F 69.4 °F 61% 29.97 in 10.0 mi SE 8.1 mph - N/A   Clear
7:55 PM 83.1 °F 86.8 °F 69.4 °F 63% 29.96 in 10.0 mi ESE 6.9 mph - N/A   Clear
8:15 PM 82.2 °F 85.8 °F 69.4 °F 65% 29.96 in 10.0 mi ESE 6.9 mph - N/A   Clear
8:35 PM 81.3 °F 84.3 °F 68.5 °F 65% 29.96 in 10.0 mi ESE 6.9 mph - N/A   Clear
8:55 PM 80.2 °F 83.0 °F 68.4 °F 67% 29.97 in 10.0 mi ESE 6.9 mph - N/A   Clear
9:15 PM 79.3 °F - 68.5 °F 69% 29.97 in 10.0 mi ESE 6.9 mph - N/A   Clear
9:35 PM 78.8 °F - 68.2 °F 70% 29.97 in 10.0 mi ESE 6.9 mph - N/A   Clear
9:55 PM 78.1 °F - 68.0 °F 71% 29.97 in 10.0 mi ESE 6.9 mph - N/A   Clear
10:15 PM 77.7 °F - 67.6 °F 71% 29.97 in 10.0 mi ESE 5.8 mph - N/A   Clear
10:35 PM 76.6 °F - 67.8 °F 74% 29.98 in 10.0 mi SE 4.6 mph - N/A   Clear
11:15 PM 76.8 °F - 67.8 °F 74% 29.98 in 10.0 mi SE 4.6 mph - N/A   Clear
11:35 PM 76.3 °F - 68.0 °F 75% 29.98 in 10.0 mi SE 5.8 mph - N/A   Clear
11:55 PM 75.9 °F - 68.0 °F 76% 29.98 in 10.0 mi SE 5.8 mph - N/A   Clear